TimeCST,TemperatureF,Dew PointF,Humidity,Sea Level PressureIn,VisibilityMPH,Wind Direction,Wind SpeedMPH,Gust SpeedMPH,PrecipitationIn,Events,Conditions,WindDirDegrees,DateUTC
12:53 AM,24.1,17.1,75,30.15,10.0,Calm,Calm,-,N/A,,Clear,0,2012-12-11 06:53:00
1:53 AM,19.0,14.0,81,30.15,10.0,Calm,Calm,-,N/A,,Clear,0,2012-12-11 07:53:00
2:53 AM,21.0,15.1,78,30.14,10.0,Calm,Calm,-,N/A,,Clear,0,2012-12-11 08:53:00
3:53 AM,19.9,15.1,81,30.14,10.0,Calm,Calm,-,N/A,,Clear,0,2012-12-11 09:53:00
4:53 AM,18.0,14.0,84,30.14,10.0,Calm,Calm,-,N/A,,Clear,0,2012-12-11 10:53:00
6:53 AM,16.0,12.9,88,30.20,10.0,Calm,Calm,-,N/A,,Clear,0,2012-12-11 12:53:00
7:53 AM,18.0,14.0,84,30.23,10.0,Calm,Calm,-,N/A,,Clear,0,2012-12-11 13:53:00
8:53 AM,28.9,21.9,75,30.23,10.0,Calm,Calm,-,N/A,,Clear,0,2012-12-11 14:53:00
9:53 AM,37.0,21.9,54,30.24,10.0,SSE,10.4,-,N/A,,Clear,160,2012-12-11 15:53:00
10:53 AM,39.9,18.0,41,30.25,10.0,SSE,6.9,-,N/A,,Clear,160,2012-12-11 16:53:00
11:53 AM,43.0,14.0,31,30.23,10.0,South,5.8,-,N/A,,Clear,170,2012-12-11 17:53:00
12:53 PM,46.0,8.1,21,30.20,10.0,South,3.5,-,N/A,,Clear,170,2012-12-11 18:53:00
1:53 PM,46.0,9.0,22,30.18,10.0,Calm,Calm,-,N/A,,Clear,0,2012-12-11 19:53:00
2:53 PM,46.9,8.1,21,30.17,10.0,Calm,Calm,-,N/A,,Clear,0,2012-12-11 20:53:00
3:53 PM,48.0,8.1,20,30.17,10.0,SSE,3.5,-,N/A,,Clear,150,2012-12-11 21:53:00
4:53 PM,45.0,7.0,21,30.17,10.0,East,4.6,-,N/A,,Clear,90,2012-12-11 22:53:00
5:53 PM,39.9,8.1,27,30.19,10.0,Calm,Calm,-,N/A,,Clear,0,2012-12-11 23:53:00
6:53 PM,33.1,10.0,38,30.22,10.0,Calm,Calm,-,N/A,,Clear,0,2012-12-12 00:53:00
7:53 PM,30.9,12.0,46,30.24,10.0,Calm,Calm,-,N/A,,Clear,0,2012-12-12 01:53:00
8:53 PM,26.1,12.0,55,30.25,10.0,Calm,Calm,-,N/A,,Clear,0,2012-12-12 02:53:00
9:53 PM,25.0,12.0,58,30.26,10.0,Calm,Calm,-,N/A,,Clear,0,2012-12-12 03:53:00
10:53 PM,25.0,12.0,58,30.26,10.0,Calm,Calm,-,N/A,,Clear,0,2012-12-12 04:53:00
11:53 PM,25.0,12.0,58,30.26,10.0,Calm,Calm,-,N/A,,Clear,0,2012-12-12 05:53:00